Weather History for KOLF - September, 2013

Change the Weather History Date:

Friday, September 6, 2013

  Actual Average Record
Temperature  
Mean Temperature 79 °F -  
Max Temperature 90 °F 78 °F 99 °F (2003)
Min Temperature 68 °F 44 °F 33 °F (2004)
Degree Days  
Heating Degree Days 0    
Cooling Degree Days 14    
Growing Degree Days 29 (Base 50)    
Moisture  
Dew Point 65 °F    
Average Humidity 68    
Maximum Humidity 94    
Minimum Humidity 43    
Precipitation  
Precipitation 0.22 in 0.04 in 0.23 in (2002)
Month to date precipitation 0.34 0.25  
Year to date precipitation 11.98 9.92  
Sea Level Pressure  
Sea Level Pressure 29.91 in    
Wind  
Wind Speed 7 mph (SSW)    
Max Wind Speed 16 mph    
Max Gust Speed 29 mph    
Visibility 9 miles    
Events Rain , Thunderstorm    
T = Trace of Precipitation, MM = Missing Value Source: NWS Daily Summary

Daily Weather History Graph

Daily Weather History Graph

Search for Another Location

Airport or City:

Trip Planner

Search our weather history database for the weather conditions in past years. The results will help you decide how hot, cold, wet, or windy it might be!

Date:

Astronomy

Sep. 06, 2013 Rise Set
Actual Time 6:27 AM MDT 7:32 PM MDT
Civil Twilight 5:55 AM MDT 8:04 PM MDT
Nautical Twilight 5:17 AM MDT 8:42 PM MDT
Astronomical Twilight 4:36 AM MDT 9:23 PM MDT
Moon 7:52 AM MDT (9/6) 7:46 PM MDT (9/6)
Length of Visible Light 14h 08m
Length of Day
13h 05m
New Moon, 2% of the Moon is Illuminated
Sep 6
New Moon
Sep 12
First Quarter
Sep 19
Full
Sep 26
Last Quarter
Oct 4
New

Hourly Weather History & Observations

Time (MDT) Temp. Heat Index Dew Point Humidity Pressure Visibility Wind Dir Wind Speed Gust Speed Precip Events Conditions
12:53 AM 71.1 °F - 63.0 °F 75% 29.87 in 10.0 mi Calm Calm - N/A   Scattered Clouds
1:53 AM 78.1 °F - 63.0 °F 60% 29.87 in 10.0 mi North 15.0 mph 25.3 mph N/A   Clear
2:53 AM 73.0 °F - 63.0 °F 71% 29.84 in 10.0 mi East 6.9 mph - N/A   Clear
3:53 AM 72.0 °F - 63.0 °F 73% 29.88 in 10.0 mi ESE 3.5 mph - N/A Thunderstorm Partly Cloudy
4:17 AM 75.2 °F - 62.6 °F 65% 29.99 in 6.0 mi SW 15.0 mph 28.8 mph 0.01 in Rain , Thunderstorm Light Thunderstorms and Rain
4:31 AM 69.8 °F - 64.4 °F 83% 29.97 in 2.5 mi West 12.7 mph 21.9 mph 0.13 in Rain , Thunderstorm Heavy Thunderstorms and Rain
4:42 AM 69.8 °F - 66.2 °F 88% 29.97 in 5.0 mi WNW 9.2 mph - 0.15 in Rain , Thunderstorm Light Thunderstorms and Rain
4:53 AM 70.0 °F - 66.0 °F 87% 29.91 in 7.0 mi WSW 6.9 mph - 0.15 in Rain , Thunderstorm Light Rain
5:35 AM 68.0 °F - 66.2 °F 94% 29.92 in 6.0 mi ESE 5.8 mph - 0.04 in Rain Light Rain
5:43 AM 69.8 °F - 66.2 °F 88% 29.92 in 7.0 mi East 6.9 mph - 0.05 in Rain , Thunderstorm Light Rain
5:53 AM 68.0 °F - 66.0 °F 93% 29.86 in 8.0 mi NE 13.8 mph - 0.06 in Rain , Thunderstorm Light Rain
6:09 AM 68.0 °F - 66.2 °F 94% 29.90 in 8.0 mi NNE 16.1 mph 20.7 mph 0.01 in Rain Light Rain
6:53 AM 69.1 °F - 66.0 °F 90% 29.89 in 10.0 mi Calm Calm - 0.01 in   Partly Cloudy
8:53 AM 73.0 °F - 66.9 °F 81% 29.94 in 10.0 mi SW 3.5 mph - N/A   Clear
9:53 AM 77.0 °F - 66.0 °F 69% 29.95 in 10.0 mi West 6.9 mph - N/A   Clear
10:53 AM 79.0 °F - 66.9 °F 66% 29.95 in 10.0 mi West 6.9 mph - N/A   Clear
11:53 AM 82.0 °F 84.5 °F 66.9 °F 60% 29.94 in 10.0 mi SW 9.2 mph - N/A   Clear
12:53 PM 86.0 °F 87.6 °F 64.9 °F 49% 29.93 in 10.0 mi SSW 8.1 mph - N/A   Clear
1:53 PM 87.1 °F 88.3 °F 64.0 °F 46% 29.91 in 10.0 mi SSW 5.8 mph - N/A   Clear
2:53 PM 89.1 °F 91.0 °F 64.9 °F 45% 29.90 in 10.0 mi SW 9.2 mph - N/A   Clear
3:53 PM 90.0 °F 91.7 °F 64.9 °F 43% 29.89 in 10.0 mi SW 8.1 mph - N/A   Clear
4:53 PM 90.0 °F 91.7 °F 64.9 °F 43% 29.87 in 10.0 mi SW 5.8 mph - N/A   Clear
5:53 PM 89.1 °F 91.3 °F 66.0 °F 46% 29.87 in 10.0 mi SE 3.5 mph - N/A   Scattered Clouds
6:53 PM 84.0 °F 87.0 °F 68.0 °F 58% 29.88 in 10.0 mi Calm Calm - N/A   Clear
7:53 PM 79.0 °F - 69.1 °F 72% 29.91 in 10.0 mi NNW 4.6 mph - N/A   Clear
8:19 PM 82.4 °F 83.4 °F 62.6 °F 51% 29.95 in 10.0 mi NE 11.5 mph - N/A   Clear
8:53 PM 80.1 °F 81.5 °F 63.0 °F 56% 29.94 in 10.0 mi NE 8.1 mph - N/A   Clear
9:53 PM 77.0 °F - 63.0 °F 62% 29.94 in 10.0 mi ENE 6.9 mph - N/A   Clear
10:53 PM 75.0 °F - 64.0 °F 69% 29.95 in 10.0 mi ENE 5.8 mph - N/A   Clear
11:53 PM 73.9 °F - 64.9 °F 73% 29.94 in 10.0 mi ENE 8.1 mph - N/A   Clear